Location: B?ogocice
(50.2413°N, 20.2361°E)
Time: 12:02:14
(UTC+00:00)

Cosmos 1536 Rocket - Pass Details

Date: 15 June 2024
Orbit: 601 x 630 km, 82.5° (Epoch: 15 July)

Event Time Altitude Azimuth Distance (km) Brightness Sun altitude
Exits shadow 00:50:06 13° 187° (S) 1,803 5.4 -11.0°
Maximum altitude 00:54:04 87° 99° (E) 634 3.6 -10.6°
Drops below altitude 10° 00:58:31 10° 11° (N) 2,004 7.4 -10.3°
Sets 01:00:45 0° 11° (N) 2,911 8.5 -10.1°
